User: anonymous   Login
Location: *
(37.9500°N, 27.3666°E)
Time: 15:10:19
(UTC+00:00)
Language:

Cosmos 614 Rocket - Orbit

View from above orbital plane
View from above orbital plane
View from above satellite
View from above satellite

Ground track
Ground track

The orbit data is extracted from the following two-line orbital elements,

1  6966U 73098B   24054.17729677  .00000546  00000-0  16780-3 0  9995
2  6966  74.0572  11.9846 0019747  92.4416 267.9002 14.43756534637809
Epoch (UTC): 23 February 2024 04:15:18
Eccentricity: 0.0019747
inclination: 74.0572°
perigee height: 732 km
apogee height: 760 km
right ascension of ascending node: 11.9846°
argument of perigee: 92.4416°
revolutions per day: 14.43756534
mean anomaly at epoch: 267.9002°
orbit number at epoch: 63780

The dashed part of the orbit path shows where the satellite is in the earth's shadow,  

DLR